EW5860 Weather Reports


time (UTC)temp
F
wind
direction
speed
knots
gust
knots
rain 1hr
in
rain 24hr
in
rain mn
in
humidity
%
barometer
mb
20260506123041 65 233 6.1 13.9 0.00 0.00 0.00 78 1008.7
20260506121547 65 175 7.8 14.8 0.00 0.00 0.00 77 1008.6
20260506120041 65 166 7.8 16.5 0.00 0.00 0.00 76 1008.3
20260506114541 65 232 7.0 15.6 0.00 0.00 0.00 77 1008.2
20260506113038 65 214 5.2 13.9 0.00 0.00 0.00 77 1008.1
20260506111536 65 203 5.2 14.8 0.00 0.00 0.00 76 1008.0
20260506110037 65 209 7.0 19.1 0.00 0.00 0.00 76 1008.1
20260506104534 65 222 6.1 18.2 0.00 0.00 0.00 76 1007.7
20260506103031 65 213 5.2 20.0 0.00 0.00 0.00 75 1007.6
20260506101530 65 218 7.8 16.5 0.00 0.00 0.00 75 1007.8
20260506100030 66 229 7.8 12.2 0.00 0.00 0.00 74 1007.7
20260506094523 66 254 6.1 19.1 0.00 0.00 0.00 74 1007.8
20260506093022 66 229 6.1 18.2 0.00 0.00 0.00 74 1007.8
20260506091520 66 194 7.0 13.0 0.00 0.00 0.00 74 1007.7
20260506090016 66 212 7.0 13.0 0.00 0.00 0.00 73 1007.9
20260506084517 67 211 7.8 15.6 0.00 0.00 0.00 72 1008.0
20260506083016 67 167 7.0 16.5 0.00 0.00 0.00 71 1008.0
20260506081509 67 214 5.2 13.0 0.00 0.00 0.00 71 1008.0
20260506073006 67 196 5.2 10.4 0.00 0.00 0.00 68 1008.1
20260506071601 67 227 3.5 10.4 0.00 0.00 0.00 67 1008.2
20260506061552 68 212 5.2 15.6 0.00 0.00 0.00 62 1008.8
20260506050104 69 199 1.7 7.8 0.00 0.00 0.00 58 1009.3
20260506044543 69 205 4.3 9.6 0.00 0.00 0.00 58 1009.2
20260506043036 69 209 1.7 9.6 0.00 0.00 0.00 57 1009.2
20260506041549 69 214 1.7 9.6 0.00 0.00 0.00 57 1009.3
20260506040033 69 227 4.3 8.7 0.00 0.00 0.00 57 1009.2
20260506034546 70 209 1.7 7.8 0.00 0.00 0.00 56 1009.2
20260506033031 70 205 3.5 8.7 0.00 0.00 0.00 56 1009.2
20260506031530 70 196 4.3 8.7 0.00 0.00 0.00 55 1009.1
20260506030032 70 188 2.6 10.4 0.00 0.00 0.00 55 1009.1
20260506024530 71 202 3.5 10.4 0.00 0.00 0.00 54 1009.2
20260506023028 71 119 2.6 7.0 0.00 0.00 0.00 53 1009.2
20260506021528 71 217 3.5 8.7 0.00 0.00 0.00 52 1009.2
20260506020027 72 250 1.7 8.7 0.00 0.00 0.00 50 1009.1
20260506014526 73 238 5.2 11.3 0.00 0.00 0.00 49 1009.0
20260506013037 73 206 4.3 10.4 0.00 0.00 0.00 48 1009.0
20260506011527 73 254 1.7 8.7 0.00 0.00 0.00 46 1008.8
20260506010026 74 209 1.7 7.0 0.00 0.00 0.00 45 1008.7
20260506004524 74 242 1.7 7.0 0.00 0.00 0.00 44 1008.5
20260506003024 75 241 0.9 7.0 0.00 0.00 0.00 43 1008.4
20260506001523 76 180 6.1 12.2 0.00 0.00 0.00 42 1008.3
20260506000023 76 173 4.3 8.7 0.00 0.00 0.00 42 1008.1
20260505234522 76 230 1.7 7.0 0.00 0.00 0.00 41 1008.1
20260505233027 77 229 1.7 10.4 0.00 0.00 0.00 41 1007.8
20260505231523 77 211 3.5 7.0 0.00 0.00 0.00 41 1007.8
20260505230021 78 162 1.7 9.6 0.00 0.00 0.00 40 1007.8
20260505224520 78 231 5.2 12.2 0.00 0.00 0.00 38 1007.8
20260505223019 79 238 5.2 14.8 0.00 0.00 0.00 38 1007.9
20260505221519 80 114 7.8 15.6 0.00 0.00 0.00 36 1007.7
20260505220030 80 183 7.0 14.8 0.00 0.00 0.00 36 1007.7
20260505214522 80 217 7.0 16.5 0.00 0.00 0.00 37 1007.6
20260505213017 80 220 7.0 18.2 0.00 0.00 0.00 36 1007.7
20260505211517 80 193 3.5 18.2 0.00 0.00 0.00 37 1007.5
20260505210016 80 120 6.1 18.2 0.00 0.00 0.00 37 1007.5
20260505204515 80 219 6.1 16.5 0.00 0.00 0.00 37 1007.6
20260505203015 80 236 5.2 16.5 0.00 0.00 0.00 38 1007.7
20260505201512 80 217 7.8 14.8 0.00 0.00 0.00 37 1007.8
20260505200016 80 180 8.7 18.2 0.00 0.00 0.00 37 1008.1
20260505194511 80 238 7.0 16.5 0.00 0.00 0.00 37 1008.0
20260505193014 80 184 7.8 15.6 0.00 0.00 0.00 37 1008.1
20260505191521 80 165 5.2 13.9 0.00 0.00 0.00 37 1008.2
20260505190011 80 207 4.3 14.8 0.00 0.00 0.00 36 1008.3
20260505184508 81 180 3.5 15.6 0.00 0.00 0.00 39 1008.4
20260505183007 81 260 5.2 12.2 0.00 0.00 0.00 41 1008.4
20260505181505 80 213 5.2 16.5 0.00 0.00 0.00 41 1008.5
20260505180005 80 177 6.1 13.9 0.00 0.00 0.00 41 1008.9
20260505174505 80 264 7.0 15.6 0.00 0.00 0.00 37 1008.9
20260505173002 80 187 5.2 14.8 0.00 0.00 0.00 39 1008.9
20260505171501 80 172 7.8 16.5 0.00 0.00 0.00 35 1009.0
20260505170058 79 173 5.2 16.5 0.00 0.00 0.00 38 1009.3
20260505164600 79 176 5.2 12.2 0.00 0.00 0.00 40 1009.6
20260505163059 79 178 7.8 13.9 0.00 0.00 0.00 41 1009.8
20260505161602 79 186 5.2 13.9 0.00 0.00 0.00 42 1009.7
20260505153050 78 169 5.2 8.7 0.00 0.00 0.00 43 1010.0
20260505151547 77 251 6.1 12.2 0.00 0.00 0.00 44 1010.1